{"data":{"norad_id":67455,"intl_designator":"2026-008L","name":"STARLINK-36516","alt_names":[],"object_type":"PAYLOAD","status":"ACTIVE","operator":null,"country":"US","launch_date":"2026-01-14","launch_site_code":"AFETR","launch_vehicle":null,"mission":null,"orbit_class":"UNKNOWN","rcs_meters":null,"size_class":null,"mass_kg":null,"dimensions":null,"purposes":["comms"],"wikipedia_slug":null,"has_3d_model":false,"image_url":null,"decayed_at":null,"tle_current":{"epoch":"2026-09-19T03:53:55.889952Z","epoch_age_seconds":187814,"freshness":"STALE","line1":"1 67455U 26008L   26262.16245243  .00011867  00000+0  44002-3 0  9993","line2":"2 67455  43.0008 192.3953 0001272 269.6206  90.4500 15.27583392 39161","mean_motion":15.27583392,"eccentricity":0.0001272,"inclination_deg":43.0008,"raan_deg":192.3953,"arg_perigee_deg":269.6206,"mean_anomaly_deg":90.45,"bstar":0.00044002,"rev_number":3916,"period_min":94.26653939427,"perigee_km":482.16619761072,"apogee_km":483.91168076965,"semimajor_km":6861.1759391902,"source":"CELESTRAK","updated_at":"2026-09-20T09:00:43.548844Z"}}}